Year,Month,Day,Hour,Minute,Value (Times are PST for temperature in C)
2008,08,29,00,00,16.30
2008,08,29,00,01,16.30
2008,08,29,00,02,16.30
2008,08,29,00,03,16.30
2008,08,29,00,04,16.30
2008,08,29,00,05,16.30
2008,08,29,00,06,16.20
2008,08,29,00,07,16.20
2008,08,29,00,08,16.20
2008,08,29,00,09,16.20
2008,08,29,00,10,16.20
2008,08,29,00,11,16.20
2008,08,29,00,12,16.20
2008,08,29,00,13,16.20
2008,08,29,00,14,16.20
2008,08,29,00,15,16.20
2008,08,29,00,16,16.10
2008,08,29,00,17,16.10
2008,08,29,00,18,16.10
2008,08,29,00,19,16.10
2008,08,29,00,20,16.00
2008,08,29,00,21,16.00
2008,08,29,00,22,16.00
2008,08,29,00,23,16.00
2008,08,29,00,24,16.00
2008,08,29,00,25,15.90
2008,08,29,00,26,15.90
2008,08,29,00,27,15.90
2008,08,29,00,28,15.90
2008,08,29,00,29,15.90
2008,08,29,00,30,15.90
2008,08,29,00,31,15.90
2008,08,29,00,32,15.90
2008,08,29,00,33,15.90
2008,08,29,00,34,15.90
2008,08,29,00,35,15.90
2008,08,29,00,36,15.90
2008,08,29,00,37,15.90
2008,08,29,00,38,15.90
2008,08,29,00,39,15.80
2008,08,29,00,40,15.80
2008,08,29,00,41,15.80
2008,08,29,00,42,15.80
2008,08,29,00,43,15.80
2008,08,29,00,44,15.80
2008,08,29,00,45,15.80
2008,08,29,00,46,15.80
2008,08,29,00,47,15.80
2008,08,29,00,48,15.80
2008,08,29,00,49,15.70
2008,08,29,00,50,15.70
2008,08,29,00,51,15.70
2008,08,29,00,52,15.70
2008,08,29,00,53,15.70
2008,08,29,00,54,15.70
2008,08,29,00,55,15.70
2008,08,29,00,56,15.60
2008,08,29,00,57,15.60
2008,08,29,00,58,15.60
2008,08,29,00,59,15.60
2008,08,29,01,00,15.60
2008,08,29,01,01,15.50
2008,08,29,01,02,15.50
2008,08,29,01,03,15.50
2008,08,29,01,04,15.40
2008,08,29,01,05,15.40
2008,08,29,01,06,15.40
2008,08,29,01,07,15.40
2008,08,29,01,08,15.40
2008,08,29,01,09,15.30
2008,08,29,01,10,15.30
2008,08,29,01,11,15.30
2008,08,29,01,12,15.30
2008,08,29,01,13,15.30
2008,08,29,01,14,15.20
2008,08,29,01,15,15.20
2008,08,29,01,16,15.10
2008,08,29,01,17,15.10
2008,08,29,01,18,15.00
2008,08,29,01,19,15.00
2008,08,29,01,20,15.00
2008,08,29,01,21,15.00
2008,08,29,01,22,15.00
2008,08,29,01,23,15.00
2008,08,29,01,24,15.00
2008,08,29,01,25,15.00
2008,08,29,01,26,15.00
2008,08,29,01,27,15.00
2008,08,29,01,28,15.00
2008,08,29,01,29,15.00
2008,08,29,01,30,15.00
2008,08,29,01,31,15.00
2008,08,29,01,32,15.00
2008,08,29,01,33,15.00
2008,08,29,01,34,15.00
2008,08,29,01,35,15.00
2008,08,29,01,36,15.00
2008,08,29,01,37,15.00
2008,08,29,01,38,15.00
2008,08,29,01,39,15.00
2008,08,29,01,40,15.00
2008,08,29,01,41,15.00
2008,08,29,01,42,15.00
2008,08,29,01,43,15.00
2008,08,29,01,44,15.00
2008,08,29,01,45,15.00
2008,08,29,01,46,14.90
2008,08,29,01,47,15.00
2008,08,29,01,48,14.90
2008,08,29,01,49,14.90
2008,08,29,01,50,14.90
2008,08,29,01,51,14.90
2008,08,29,01,52,14.90
2008,08,29,01,53,14.80
2008,08,29,01,54,14.80
2008,08,29,01,55,14.80
2008,08,29,01,56,14.80
2008,08,29,01,57,14.80
2008,08,29,01,58,14.80
2008,08,29,01,59,14.80
2008,08,29,02,00,14.80
2008,08,29,02,01,14.80
2008,08,29,02,02,14.80
2008,08,29,02,03,14.80
2008,08,29,02,04,14.80
2008,08,29,02,05,14.80
2008,08,29,02,06,14.80
2008,08,29,02,07,14.80
2008,08,29,02,08,14.70
2008,08,29,02,09,14.70
2008,08,29,02,10,14.70
2008,08,29,02,11,14.70
2008,08,29,02,12,14.70
2008,08,29,02,13,14.70
2008,08,29,02,14,14.70
2008,08,29,02,15,14.70
2008,08,29,02,16,14.70
2008,08,29,02,17,14.70
2008,08,29,02,18,14.70
2008,08,29,02,19,14.70
2008,08,29,02,20,14.70
2008,08,29,02,21,14.60
2008,08,29,02,22,14.60
2008,08,29,02,23,14.60
2008,08,29,02,24,14.60
2008,08,29,02,25,14.60
2008,08,29,02,26,14.60
2008,08,29,02,27,14.60
2008,08,29,02,28,14.60
2008,08,29,02,29,14.60
2008,08,29,02,30,14.60
2008,08,29,02,31,14.60
2008,08,29,02,32,14.60
2008,08,29,02,33,14.60
2008,08,29,02,34,14.60
2008,08,29,02,35,14.60
2008,08,29,02,36,14.60
2008,08,29,02,37,14.60
2008,08,29,02,38,14.60
2008,08,29,02,39,14.60
2008,08,29,02,40,14.60
2008,08,29,02,41,14.60
2008,08,29,02,42,14.60
2008,08,29,02,43,14.60
2008,08,29,02,44,14.60
2008,08,29,02,45,14.60
2008,08,29,02,46,14.60
2008,08,29,02,47,14.60
2008,08,29,02,48,14.60
2008,08,29,02,49,14.60
2008,08,29,02,50,14.60
2008,08,29,02,51,14.60
2008,08,29,02,52,14.50
2008,08,29,02,53,14.50
2008,08,29,02,54,14.50
2008,08,29,02,55,14.50
2008,08,29,02,56,14.50
2008,08,29,02,57,14.50
2008,08,29,02,58,14.50
2008,08,29,02,59,14.50
2008,08,29,03,00,14.40
2008,08,29,03,01,14.40
2008,08,29,03,02,14.40
2008,08,29,03,03,14.40
2008,08,29,03,04,14.40
2008,08,29,03,05,14.40
2008,08,29,03,06,14.40
2008,08,29,03,07,14.30
2008,08,29,03,08,14.30
2008,08,29,03,09,14.30
2008,08,29,03,10,14.30
2008,08,29,03,11,14.30
2008,08,29,03,12,14.30
2008,08,29,03,13,14.30
2008,08,29,03,14,14.30
2008,08,29,03,15,14.20
2008,08,29,03,16,14.20
2008,08,29,03,17,14.20
2008,08,29,03,18,14.20
2008,08,29,03,19,14.20
2008,08,29,03,20,14.20
2008,08,29,03,21,14.20
2008,08,29,03,22,14.20
2008,08,29,03,23,14.20
2008,08,29,03,24,14.20
2008,08,29,03,25,14.20
2008,08,29,03,26,14.20
2008,08,29,03,27,14.20
2008,08,29,03,28,14.30
2008,08,29,03,29,14.30
2008,08,29,03,30,14.30
2008,08,29,03,31,14.30
2008,08,29,03,32,14.30
2008,08,29,03,33,14.30
2008,08,29,03,34,14.20
2008,08,29,03,35,14.20
2008,08,29,03,36,14.20
2008,08,29,03,37,14.20
2008,08,29,03,38,14.20
2008,08,29,03,39,14.20
2008,08,29,03,40,14.20
2008,08,29,03,41,14.20
2008,08,29,03,42,14.20
2008,08,29,03,43,14.20
2008,08,29,03,44,14.20
2008,08,29,03,45,14.10
2008,08,29,03,46,14.10
2008,08,29,03,47,14.10
2008,08,29,03,48,14.10
2008,08,29,03,49,14.10
2008,08,29,03,50,14.10
2008,08,29,03,51,14.10
2008,08,29,03,52,14.10
2008,08,29,03,53,14.10
2008,08,29,03,54,14.10
2008,08,29,03,55,14.20
2008,08,29,03,56,14.20
2008,08,29,03,57,14.20
2008,08,29,03,58,14.30
2008,08,29,03,59,14.30
2008,08,29,04,00,14.30
2008,08,29,04,01,14.30
2008,08,29,04,02,14.30
2008,08,29,04,03,14.30
2008,08,29,04,04,14.30
2008,08,29,04,05,14.30
2008,08,29,04,06,14.30
2008,08,29,04,07,14.30
2008,08,29,04,08,14.30
2008,08,29,04,09,14.30
2008,08,29,04,10,14.30
2008,08,29,04,11,14.30
2008,08,29,04,12,14.30
2008,08,29,04,13,14.30
2008,08,29,04,14,14.30
2008,08,29,04,15,14.20
2008,08,29,04,16,14.20
2008,08,29,04,17,14.20
2008,08,29,04,18,14.20
2008,08,29,04,19,14.20
2008,08,29,04,20,14.20
2008,08,29,04,21,14.30
2008,08,29,04,22,14.30
2008,08,29,04,23,14.30
2008,08,29,04,24,14.30
2008,08,29,04,25,14.30
2008,08,29,04,26,14.30
2008,08,29,04,27,14.30
2008,08,29,04,28,14.30
2008,08,29,04,29,14.30
2008,08,29,04,30,14.30
2008,08,29,04,31,14.30
2008,08,29,04,32,14.20
2008,08,29,04,33,14.20
2008,08,29,04,34,14.20
2008,08,29,04,35,14.20
2008,08,29,04,36,14.20
2008,08,29,04,37,14.20
2008,08,29,04,38,14.20
2008,08,29,04,39,14.20
2008,08,29,04,40,14.20
2008,08,29,04,41,14.10
2008,08,29,04,42,14.10
2008,08,29,04,43,14.10
2008,08,29,04,44,14.10
2008,08,29,04,45,14.10
2008,08,29,04,46,14.10
2008,08,29,04,47,14.10
2008,08,29,04,48,14.10
2008,08,29,04,49,14.10
2008,08,29,04,50,14.00
2008,08,29,04,51,14.00
2008,08,29,04,52,14.00
2008,08,29,04,53,13.90
2008,08,29,04,54,13.90
2008,08,29,04,55,13.90
2008,08,29,04,56,13.90
2008,08,29,04,57,13.90
2008,08,29,04,58,13.90
2008,08,29,04,59,13.80
2008,08,29,05,00,13.80
2008,08,29,05,01,13.80
2008,08,29,05,02,13.80
2008,08,29,05,03,13.80
2008,08,29,05,04,13.80
2008,08,29,05,05,13.80
2008,08,29,05,06,13.80
2008,08,29,05,07,13.80
2008,08,29,05,08,13.80
2008,08,29,05,09,13.80
2008,08,29,05,10,13.80
2008,08,29,05,11,13.80
2008,08,29,05,12,13.80
2008,08,29,05,13,13.80
2008,08,29,05,14,13.80
2008,08,29,05,15,13.80
2008,08,29,05,16,13.80
2008,08,29,05,17,13.90
2008,08,29,05,18,13.90
2008,08,29,05,19,13.80
2008,08,29,05,20,13.80
2008,08,29,05,21,13.80
2008,08,29,05,22,13.90
2008,08,29,05,23,13.90
2008,08,29,05,24,13.90
2008,08,29,05,25,13.90
2008,08,29,05,26,13.90
2008,08,29,05,27,13.90
2008,08,29,05,28,14.00
2008,08,29,05,29,14.00
2008,08,29,05,30,14.00
2008,08,29,05,31,14.00
2008,08,29,05,32,13.90
2008,08,29,05,33,13.90
2008,08,29,05,34,13.90
2008,08,29,05,35,13.90
2008,08,29,05,36,13.90
2008,08,29,05,37,13.80
2008,08,29,05,38,13.80
2008,08,29,05,39,13.80
2008,08,29,05,40,13.80
2008,08,29,05,41,13.80
2008,08,29,05,42,13.70
2008,08,29,05,43,13.70
2008,08,29,05,44,13.70
2008,08,29,05,45,13.70
2008,08,29,05,46,13.80
2008,08,29,05,47,13.80
2008,08,29,05,48,13.80
2008,08,29,05,49,13.80
2008,08,29,05,50,13.80
2008,08,29,05,51,13.80
2008,08,29,05,52,13.90
2008,08,29,05,53,13.90
2008,08,29,05,54,13.90
2008,08,29,05,55,13.90
2008,08,29,05,56,13.90
2008,08,29,05,57,13.90
2008,08,29,05,58,13.90
2008,08,29,05,59,13.90
2008,08,29,06,00,13.90
2008,08,29,06,01,13.90
2008,08,29,06,02,13.90
2008,08,29,06,03,13.80
2008,08,29,06,04,13.90
2008,08,29,06,05,13.90
2008,08,29,06,06,13.90
2008,08,29,06,07,13.90
2008,08,29,06,08,13.90
2008,08,29,06,09,13.90
2008,08,29,06,10,13.90
2008,08,29,06,11,13.90
2008,08,29,06,12,13.90
2008,08,29,06,13,13.90
2008,08,29,06,14,13.90
2008,08,29,06,15,13.90
2008,08,29,06,16,13.90
2008,08,29,06,17,13.90
2008,08,29,06,18,13.90
2008,08,29,06,19,13.90
2008,08,29,06,20,13.90
2008,08,29,06,21,13.90
2008,08,29,06,22,13.90
2008,08,29,06,23,13.90
2008,08,29,06,24,13.90
2008,08,29,06,25,13.90
2008,08,29,06,26,13.90
2008,08,29,06,27,13.90
2008,08,29,06,28,13.90
2008,08,29,06,29,13.90
2008,08,29,06,30,13.90
2008,08,29,06,31,13.90
2008,08,29,06,32,13.90
2008,08,29,06,33,13.90
2008,08,29,06,34,13.90
2008,08,29,06,35,13.90
2008,08,29,06,36,13.90
2008,08,29,06,37,13.90
2008,08,29,06,38,13.90
2008,08,29,06,39,13.90
2008,08,29,06,40,13.90
2008,08,29,06,41,13.90
2008,08,29,06,42,13.90
2008,08,29,06,43,13.90
2008,08,29,06,44,13.90
2008,08,29,06,45,13.90
2008,08,29,06,46,13.90
2008,08,29,06,47,14.00
2008,08,29,06,48,14.10
2008,08,29,06,49,14.10
2008,08,29,06,50,14.20
2008,08,29,06,51,14.20
2008,08,29,06,52,14.20
2008,08,29,06,53,14.20
2008,08,29,06,54,14.30
2008,08,29,06,55,14.30
2008,08,29,06,56,14.30
2008,08,29,06,57,14.30
2008,08,29,06,58,14.30
2008,08,29,06,59,14.40
2008,08,29,07,00,14.40
2008,08,29,07,01,14.40
2008,08,29,07,02,14.40
2008,08,29,07,03,14.40
2008,08,29,07,04,14.40
2008,08,29,07,05,14.40
2008,08,29,07,06,14.40
2008,08,29,07,07,14.40
2008,08,29,07,08,14.40
2008,08,29,07,09,14.40
2008,08,29,07,10,14.50
2008,08,29,07,11,14.50
2008,08,29,07,12,14.50
2008,08,29,07,13,14.50
2008,08,29,07,14,14.50
2008,08,29,07,15,14.50
2008,08,29,07,16,14.50
2008,08,29,07,17,14.60
2008,08,29,07,18,14.60
2008,08,29,07,19,14.60
2008,08,29,07,20,14.60
2008,08,29,07,21,14.60
2008,08,29,07,22,14.60
2008,08,29,07,23,14.60
2008,08,29,07,24,14.60
2008,08,29,07,25,14.60
2008,08,29,07,26,14.60
2008,08,29,07,27,14.60
2008,08,29,07,28,14.60
2008,08,29,07,29,14.60
2008,08,29,07,30,14.60
2008,08,29,07,31,14.60
2008,08,29,07,32,14.60
2008,08,29,07,33,14.60
2008,08,29,07,34,14.60
2008,08,29,07,35,14.60
2008,08,29,07,36,14.60
2008,08,29,07,37,14.60
2008,08,29,07,38,14.60
2008,08,29,07,39,14.70
2008,08,29,07,40,14.70
2008,08,29,07,41,14.70
2008,08,29,07,42,14.70
2008,08,29,07,43,14.70
2008,08,29,07,44,14.70
2008,08,29,07,45,14.70
2008,08,29,07,46,14.70
2008,08,29,07,47,14.70
2008,08,29,07,48,14.70
2008,08,29,07,49,14.70
2008,08,29,07,50,14.70
2008,08,29,07,51,14.70
2008,08,29,07,52,14.70
2008,08,29,07,53,14.70
2008,08,29,07,54,14.70
2008,08,29,07,55,14.70
2008,08,29,07,56,14.70
2008,08,29,07,57,14.70
2008,08,29,07,58,14.70
2008,08,29,07,59,14.70
2008,08,29,08,00,14.70
2008,08,29,08,01,14.70
2008,08,29,08,02,14.70
2008,08,29,08,03,14.70
2008,08,29,08,04,14.70
2008,08,29,08,05,14.70
2008,08,29,08,06,14.70
2008,08,29,08,07,14.70
2008,08,29,08,08,14.70
2008,08,29,08,09,14.70
2008,08,29,08,10,14.80
2008,08,29,08,11,14.80
2008,08,29,08,12,14.80
2008,08,29,08,13,14.80
2008,08,29,08,14,14.80
2008,08,29,08,15,14.80
2008,08,29,08,16,14.80
2008,08,29,08,17,14.80
2008,08,29,08,18,14.80
2008,08,29,08,19,14.80
2008,08,29,08,20,14.80
2008,08,29,08,21,14.80
2008,08,29,08,22,14.80
2008,08,29,08,23,14.80
2008,08,29,08,24,14.80
2008,08,29,08,25,14.80
2008,08,29,08,26,14.80
2008,08,29,08,27,14.80
2008,08,29,08,28,14.80
2008,08,29,08,29,14.80
2008,08,29,08,30,14.80
2008,08,29,08,31,14.90
2008,08,29,08,32,14.90
2008,08,29,08,33,14.90
2008,08,29,08,34,14.90
2008,08,29,08,35,14.90
2008,08,29,08,36,14.90
2008,08,29,08,37,14.90
2008,08,29,08,38,14.90
2008,08,29,08,39,14.90
2008,08,29,08,40,14.90
2008,08,29,08,41,14.90
2008,08,29,08,42,15.00
2008,08,29,08,43,15.00
2008,08,29,08,44,15.00
2008,08,29,08,45,15.00
2008,08,29,08,46,15.00
2008,08,29,08,47,14.90
2008,08,29,08,48,14.90
2008,08,29,08,49,14.90
2008,08,29,08,50,14.90
2008,08,29,08,51,15.00
2008,08,29,08,52,14.90
2008,08,29,08,53,15.00
2008,08,29,08,54,15.00
2008,08,29,08,55,15.00
2008,08,29,08,56,15.00
2008,08,29,08,57,14.90
2008,08,29,08,58,14.90
2008,08,29,08,59,14.90
2008,08,29,09,00,14.90
2008,08,29,09,01,14.90
2008,08,29,09,02,14.90
2008,08,29,09,03,14.90
2008,08,29,09,04,15.00
2008,08,29,09,05,15.00
2008,08,29,09,06,15.00
2008,08,29,09,07,15.00
2008,08,29,09,08,15.00
2008,08,29,09,09,15.00
2008,08,29,09,10,15.00
2008,08,29,09,11,15.00
2008,08,29,09,12,15.00
2008,08,29,09,13,15.00
2008,08,29,09,14,15.00
2008,08,29,09,15,15.00
2008,08,29,09,16,15.00
2008,08,29,09,17,15.00
2008,08,29,09,18,15.00
2008,08,29,09,19,15.00
2008,08,29,09,20,15.00
2008,08,29,09,21,15.00
2008,08,29,09,22,15.00
2008,08,29,09,23,15.00
2008,08,29,09,24,15.00
2008,08,29,09,25,15.00
2008,08,29,09,26,15.00
2008,08,29,09,27,15.00
2008,08,29,09,28,14.90
2008,08,29,09,29,14.90
2008,08,29,09,30,14.90
2008,08,29,09,31,14.80
2008,08,29,09,32,14.80
2008,08,29,09,33,14.80
2008,08,29,09,34,14.80
2008,08,29,09,35,14.80
2008,08,29,09,36,14.80
2008,08,29,09,37,14.90
2008,08,29,09,38,14.90
2008,08,29,09,39,14.90
2008,08,29,09,40,14.80
2008,08,29,09,41,14.80
2008,08,29,09,42,14.80
2008,08,29,09,43,14.80
2008,08,29,09,44,14.80
2008,08,29,09,45,14.80
2008,08,29,09,46,14.80
2008,08,29,09,47,14.90
2008,08,29,09,48,14.90
2008,08,29,09,49,14.90
2008,08,29,09,50,14.90
2008,08,29,09,51,15.00
2008,08,29,09,52,15.00
2008,08,29,09,53,15.00
2008,08,29,09,54,15.00
2008,08,29,09,55,15.00
2008,08,29,09,56,15.00
2008,08,29,09,57,15.00
2008,08,29,09,58,15.00
2008,08,29,09,59,15.00
2008,08,29,10,00,15.00
2008,08,29,10,01,15.00
2008,08,29,10,02,15.00
2008,08,29,10,03,15.00
2008,08,29,10,04,15.00
2008,08,29,10,05,15.00
2008,08,29,10,06,15.00
2008,08,29,10,07,15.00
2008,08,29,10,08,15.00
2008,08,29,10,09,15.00
2008,08,29,10,10,15.00
2008,08,29,10,11,15.00
2008,08,29,10,12,15.00
2008,08,29,10,13,15.00
2008,08,29,10,14,15.10
2008,08,29,10,15,15.00
2008,08,29,10,16,15.00
2008,08,29,10,17,15.00
2008,08,29,10,18,15.00
2008,08,29,10,19,15.10
2008,08,29,10,20,15.10
2008,08,29,10,21,15.10
2008,08,29,10,22,15.20
2008,08,29,10,23,15.20
2008,08,29,10,24,15.20
2008,08,29,10,25,15.20
2008,08,29,10,26,15.20
2008,08,29,10,27,15.30
2008,08,29,10,28,15.30
2008,08,29,10,29,15.30
2008,08,29,10,30,15.40
2008,08,29,10,31,15.40
2008,08,29,10,32,15.40
2008,08,29,10,33,15.50
2008,08,29,10,34,15.50
2008,08,29,10,35,15.50
2008,08,29,10,36,15.50
2008,08,29,10,37,15.50
2008,08,29,10,38,15.50
2008,08,29,10,39,15.60
2008,08,29,10,40,15.60
2008,08,29,10,41,15.60
2008,08,29,10,42,15.60
2008,08,29,10,43,15.60
2008,08,29,10,44,15.60
2008,08,29,10,45,15.60
2008,08,29,10,46,15.60
2008,08,29,10,47,15.60
2008,08,29,10,48,15.70
2008,08,29,10,49,15.70
2008,08,29,10,50,15.70
2008,08,29,10,51,15.70
2008,08,29,10,52,15.80
2008,08,29,10,53,15.80
2008,08,29,10,54,15.80
2008,08,29,10,55,15.90
2008,08,29,10,56,15.90
2008,08,29,10,57,15.90
2008,08,29,10,58,16.00
2008,08,29,10,59,16.00
2008,08,29,11,00,16.00
2008,08,29,11,01,16.10
2008,08,29,11,02,16.10
2008,08,29,11,03,16.20
2008,08,29,11,04,16.20
2008,08,29,11,05,16.20
2008,08,29,11,06,16.20
2008,08,29,11,07,16.30
2008,08,29,11,08,16.30
2008,08,29,11,09,16.30
2008,08,29,11,10,16.30
2008,08,29,11,11,16.30
2008,08,29,11,12,16.40
2008,08,29,11,13,16.40
2008,08,29,11,14,16.50
2008,08,29,11,15,16.50
2008,08,29,11,16,16.50
2008,08,29,11,17,16.60
2008,08,29,11,18,16.60
2008,08,29,11,19,16.60
2008,08,29,11,20,16.60
2008,08,29,11,21,16.60
2008,08,29,11,22,16.60
2008,08,29,11,23,16.60
2008,08,29,11,24,16.60
2008,08,29,11,25,16.70
2008,08,29,11,26,16.70
2008,08,29,11,27,16.80
2008,08,29,11,28,16.80
2008,08,29,11,29,16.80
2008,08,29,11,30,16.90
2008,08,29,11,31,16.90
2008,08,29,11,32,17.00
2008,08,29,11,33,17.10
2008,08,29,11,34,17.20
2008,08,29,11,35,17.20
2008,08,29,11,36,17.30
2008,08,29,11,37,17.30
2008,08,29,11,38,17.40
2008,08,29,11,39,17.50
2008,08,29,11,40,17.60
2008,08,29,11,41,17.60
2008,08,29,11,42,17.70
2008,08,29,11,43,17.70
2008,08,29,11,44,17.80
2008,08,29,11,45,17.80
2008,08,29,11,46,17.80
2008,08,29,11,47,17.80
2008,08,29,11,48,17.80
2008,08,29,11,49,17.80
2008,08,29,11,50,17.90
2008,08,29,11,51,17.90
2008,08,29,11,52,17.90
2008,08,29,11,53,17.90
2008,08,29,11,54,17.90
2008,08,29,11,55,17.90
2008,08,29,11,56,17.90
2008,08,29,11,57,17.90
2008,08,29,11,58,17.90
2008,08,29,11,59,17.90
2008,08,29,12,00,18.00
2008,08,29,12,01,18.00
2008,08,29,12,02,18.00
2008,08,29,12,03,18.00
2008,08,29,12,04,18.00
2008,08,29,12,05,18.00
2008,08,29,12,06,18.10
2008,08,29,12,07,18.10
2008,08,29,12,08,18.10
2008,08,29,12,09,18.10
2008,08,29,12,10,18.10
2008,08,29,12,11,18.10
2008,08,29,12,12,18.10
2008,08,29,12,13,18.10
2008,08,29,12,14,18.10
2008,08,29,12,15,18.10
2008,08,29,12,16,18.10
2008,08,29,12,17,18.10
2008,08,29,12,18,18.10
2008,08,29,12,19,18.10
2008,08,29,12,20,18.10
2008,08,29,12,21,18.10
2008,08,29,12,22,18.10
2008,08,29,12,23,18.10
2008,08,29,12,24,18.10
2008,08,29,12,25,18.10
2008,08,29,12,26,18.10
2008,08,29,12,27,18.10
2008,08,29,12,28,18.10
2008,08,29,12,29,18.10
2008,08,29,12,30,18.00
2008,08,29,12,31,18.00
2008,08,29,12,32,18.00
2008,08,29,12,33,18.00
2008,08,29,12,34,18.10
2008,08,29,12,35,18.10
2008,08,29,12,36,18.10
2008,08,29,12,37,18.10
2008,08,29,12,38,18.10
2008,08,29,12,39,18.10
2008,08,29,12,40,18.20
2008,08,29,12,41,18.20
2008,08,29,12,42,18.20
2008,08,29,12,43,18.20
2008,08,29,12,44,18.20
2008,08,29,12,45,18.20
2008,08,29,12,46,18.20
2008,08,29,12,47,18.20
2008,08,29,12,48,18.20
2008,08,29,12,49,18.20
2008,08,29,12,50,18.20
2008,08,29,12,51,18.20
2008,08,29,12,52,18.20
2008,08,29,12,53,18.20
2008,08,29,12,54,18.20
2008,08,29,12,55,18.20
2008,08,29,12,56,18.20
2008,08,29,12,57,18.20
2008,08,29,12,58,18.20
2008,08,29,12,59,18.20
2008,08,29,13,00,18.20
2008,08,29,13,01,18.20
2008,08,29,13,02,18.20
2008,08,29,13,03,18.20
2008,08,29,13,04,18.20
2008,08,29,13,05,18.20
2008,08,29,13,06,18.20
2008,08,29,13,07,18.20
2008,08,29,13,08,18.20
2008,08,29,13,09,18.20
2008,08,29,13,10,18.20
2008,08,29,13,11,18.20
2008,08,29,13,12,18.20
2008,08,29,13,13,18.20
2008,08,29,13,14,18.20
2008,08,29,13,15,18.20
2008,08,29,13,16,18.20
2008,08,29,13,17,18.20
2008,08,29,13,18,18.30
2008,08,29,13,19,18.40
2008,08,29,13,20,18.50
2008,08,29,13,21,18.60
2008,08,29,13,22,18.70
2008,08,29,13,23,18.80
2008,08,29,13,24,18.80
2008,08,29,13,25,18.80
2008,08,29,13,26,18.90
2008,08,29,13,27,18.90
2008,08,29,13,28,19.00
2008,08,29,13,29,19.00
2008,08,29,13,30,19.10
2008,08,29,13,31,19.10
2008,08,29,13,32,19.20
2008,08,29,13,33,19.30
2008,08,29,13,34,19.30
2008,08,29,13,35,19.40
2008,08,29,13,36,19.40
2008,08,29,13,37,19.40
2008,08,29,13,38,19.40
2008,08,29,13,39,19.50
2008,08,29,13,40,19.50
2008,08,29,13,41,19.50
2008,08,29,13,42,19.50
2008,08,29,13,43,19.50
2008,08,29,13,44,19.40
2008,08,29,13,45,19.40
2008,08,29,13,46,19.40
2008,08,29,13,47,19.50
2008,08,29,13,48,19.50
2008,08,29,13,49,19.50
2008,08,29,13,50,19.60
2008,08,29,13,51,19.60
2008,08,29,13,52,19.50
2008,08,29,13,53,19.50
2008,08,29,13,54,19.40
2008,08,29,13,55,19.40
2008,08,29,13,56,19.40
2008,08,29,13,57,19.40
2008,08,29,13,58,19.30
2008,08,29,13,59,19.30
2008,08,29,14,00,19.30
2008,08,29,14,01,19.30
2008,08,29,14,02,19.20
2008,08,29,14,03,19.20
2008,08,29,14,04,19.20
2008,08,29,14,05,19.20
2008,08,29,14,06,19.20
2008,08,29,14,07,19.30
2008,08,29,14,08,19.30
2008,08,29,14,09,19.40
2008,08,29,14,10,19.40
2008,08,29,14,11,19.50
2008,08,29,14,12,19.60
2008,08,29,14,13,19.70
2008,08,29,14,14,19.80
2008,08,29,14,15,19.80
2008,08,29,14,16,19.90
2008,08,29,14,17,19.90
2008,08,29,14,18,20.00
2008,08,29,14,19,20.00
2008,08,29,14,20,20.10
2008,08,29,14,21,20.20
2008,08,29,14,22,20.30
2008,08,29,14,23,20.40
2008,08,29,14,24,20.50
2008,08,29,14,25,20.60
2008,08,29,14,26,20.70
2008,08,29,14,27,20.70
2008,08,29,14,28,20.70
2008,08,29,14,29,20.70
2008,08,29,14,30,20.70
2008,08,29,14,31,20.70
2008,08,29,14,32,20.70
2008,08,29,14,33,20.70
2008,08,29,14,34,20.70
2008,08,29,14,35,20.70
2008,08,29,14,36,20.70
2008,08,29,14,37,20.70
2008,08,29,14,38,20.70
2008,08,29,14,39,20.70
2008,08,29,14,40,20.70
2008,08,29,14,41,20.80
2008,08,29,14,42,20.80
2008,08,29,14,43,20.80
2008,08,29,14,44,20.80
2008,08,29,14,45,20.80
2008,08,29,14,46,20.80
2008,08,29,14,47,20.80
2008,08,29,14,48,20.80
2008,08,29,14,49,20.80
2008,08,29,14,50,20.80
2008,08,29,14,51,20.90
2008,08,29,14,52,21.00
2008,08,29,14,53,21.00
2008,08,29,14,54,21.00
2008,08,29,14,55,21.00
2008,08,29,14,56,21.00
2008,08,29,14,57,21.10
2008,08,29,14,58,21.20
2008,08,29,14,59,21.20
2008,08,29,15,00,21.20
2008,08,29,15,01,21.30
2008,08,29,15,02,21.30
2008,08,29,15,03,21.30
2008,08,29,15,04,21.40
2008,08,29,15,05,21.40
2008,08,29,15,06,21.50
2008,08,29,15,07,21.50
2008,08,29,15,08,21.50
2008,08,29,15,09,21.50
2008,08,29,15,10,21.50
2008,08,29,15,11,21.50
2008,08,29,15,12,21.60
2008,08,29,15,13,21.60
2008,08,29,15,14,21.60
2008,08,29,15,15,21.60
2008,08,29,15,16,21.50
2008,08,29,15,17,21.50
2008,08,29,15,18,21.50
2008,08,29,15,19,21.50
2008,08,29,15,20,21.50
2008,08,29,15,21,21.40
2008,08,29,15,22,21.50
2008,08,29,15,23,21.50
2008,08,29,15,24,21.50
2008,08,29,15,25,21.50
2008,08,29,15,26,21.40
2008,08,29,15,27,21.40
2008,08,29,15,28,21.30
2008,08,29,15,29,21.30
2008,08,29,15,30,21.30
2008,08,29,15,31,21.30
2008,08,29,15,32,21.40
2008,08,29,15,33,21.40
2008,08,29,15,34,21.40
2008,08,29,15,35,21.50
2008,08,29,15,36,21.50
2008,08,29,15,37,21.60
2008,08,29,15,38,21.60
2008,08,29,15,39,21.70
2008,08,29,15,40,21.80
2008,08,29,15,41,21.80
2008,08,29,15,42,21.90
2008,08,29,15,43,21.90
2008,08,29,15,44,21.90
2008,08,29,15,45,21.90
2008,08,29,15,46,21.90
2008,08,29,15,47,21.90
2008,08,29,15,48,21.90
2008,08,29,15,49,21.90
2008,08,29,15,50,21.90
2008,08,29,15,51,21.90
2008,08,29,15,52,21.90
2008,08,29,15,53,21.90
2008,08,29,15,54,21.90
2008,08,29,15,55,21.80
2008,08,29,15,56,21.80
2008,08,29,15,57,21.80
2008,08,29,15,58,21.80
2008,08,29,15,59,21.70
2008,08,29,16,00,21.70
2008,08,29,16,01,21.70
2008,08,29,16,02,21.70
2008,08,29,16,03,21.70
2008,08,29,16,04,21.70
2008,08,29,16,05,21.70
2008,08,29,16,06,21.60
2008,08,29,16,07,21.60
2008,08,29,16,08,21.50
2008,08,29,16,09,21.40
2008,08,29,16,10,21.40
2008,08,29,16,11,21.40
2008,08,29,16,12,21.50
2008,08,29,16,13,21.50
2008,08,29,16,14,21.60
2008,08,29,16,15,21.60
2008,08,29,16,16,21.60
2008,08,29,16,17,21.60
2008,08,29,16,18,21.60
2008,08,29,16,19,21.60
2008,08,29,16,20,21.70
2008,08,29,16,21,21.70
2008,08,29,16,22,21.70
2008,08,29,16,23,21.70
2008,08,29,16,24,21.70
2008,08,29,16,25,21.70
2008,08,29,16,26,21.70
2008,08,29,16,27,21.70
2008,08,29,16,28,21.70
2008,08,29,16,29,21.70
2008,08,29,16,30,21.70
2008,08,29,16,31,21.70
2008,08,29,16,32,21.80
2008,08,29,16,33,21.80
2008,08,29,16,34,21.80
2008,08,29,16,35,21.80
2008,08,29,16,36,21.80
2008,08,29,16,37,21.80
2008,08,29,16,38,21.70
2008,08,29,16,39,21.70
2008,08,29,16,40,21.70
2008,08,29,16,41,21.70
2008,08,29,16,42,21.60
2008,08,29,16,43,21.60
2008,08,29,16,44,21.50
2008,08,29,16,45,21.50
2008,08,29,16,46,21.40
2008,08,29,16,47,21.50
2008,08,29,16,48,21.50
2008,08,29,16,49,21.50
2008,08,29,16,50,21.50
2008,08,29,16,51,21.50
2008,08,29,16,52,21.60
2008,08,29,16,53,21.60
2008,08,29,16,54,21.60
2008,08,29,16,55,21.60
2008,08,29,16,56,21.60
2008,08,29,16,57,21.60
2008,08,29,16,58,21.60
2008,08,29,16,59,21.60
2008,08,29,17,00,21.60
2008,08,29,17,01,21.50
2008,08,29,17,02,21.40
2008,08,29,17,03,21.40
2008,08,29,17,04,21.40
2008,08,29,17,05,21.40
2008,08,29,17,06,21.30
2008,08,29,17,07,21.30
2008,08,29,17,08,21.30
2008,08,29,17,09,21.30
2008,08,29,17,10,21.30
2008,08,29,17,11,21.30
2008,08,29,17,12,21.40
2008,08,29,17,13,21.40
2008,08,29,17,14,21.40
2008,08,29,17,15,21.40
2008,08,29,17,16,21.30
2008,08,29,17,17,21.30
2008,08,29,17,18,21.20
2008,08,29,17,19,21.20